Pipestone, MN

12:48 PM CDT on July 21, 2017 (GMT -0500)
Pipestone Municipal

Weather History for KPQN - November, 2012

Change the Weather History Date:

Friday, November 30, 2012

  Actual Average Record
Temperature  
Mean Temperature 32 °F -  
Max Temperature 42 °F 33 °F 48 °F (1999)
Min Temperature 23 °F 19 °F 3 °F (2006)
Degree Days  
Heating Degree Days 32    
Moisture  
Dew Point 27 °F    
Average Humidity 84    
Maximum Humidity 100    
Minimum Humidity 61    
Precipitation  
Precipitation 0.00 in - - ()
Sea Level Pressure  
Sea Level Pressure 30.00 in    
Wind  
Wind Speed 8 mph (ESE)    
Max Wind Speed 16 mph    
Max Gust Speed 20 mph    
Visibility 6 miles    
Events Fog    
Averages and records for this station are not official NWS values.
T = Trace of Precipitation, MM = Missing Value Source: NWS Daily Summary

Daily Weather History Graph

Daily Weather History Graph

Search for Another Location

Airport or City:

Trip Planner

Search our weather history database for the weather conditions in past years. The results will help you decide how hot, cold, wet, or windy it might be!

Date:

Astronomy

Nov. 30, 2012 Rise Set
Actual Time 7:39 AM CST 4:48 PM CST
Civil Twilight 7:06 AM CST 5:21 PM CST
Nautical Twilight 6:31 AM CST 5:56 PM CST
Astronomical Twilight 5:56 AM CST 6:31 PM CST
Moon 6:45 PM CST (11/30) 9:11 AM CST (11/30)
Length of Visible Light 10h 14m
Length of Day
9h 09m
Waning Gibbous, 96% of the Moon is Illuminated
Nov 30
Waning Gibbous
Dec 6
Last Quarter
Dec 13
New
Dec 19
First Quarter
Dec 28
Full

Hourly Weather History & Observations

Time (CST) Temp. Windchill Dew Point Humidity Pressure Visibility Wind Dir Wind Speed Gust Speed Precip Events Conditions
12:13 AM 28.4 °F 18.5 °F 24.8 °F 86% 29.97 in 10.0 mi ENE 11.5 mph - N/A   Clear
12:33 AM 28.4 °F 19.1 °F 24.8 °F 86% 29.98 in 10.0 mi East 10.4 mph - N/A   Clear
12:53 AM 28.4 °F 20.4 °F 24.8 °F 86% 29.98 in 7.0 mi ENE 8.1 mph - N/A   Clear
1:13 AM 28.4 °F 19.7 °F 24.8 °F 86% 29.98 in 7.0 mi ENE 9.2 mph - N/A   Clear
1:33 AM 28.4 °F 20.4 °F 24.8 °F 86% 29.99 in 7.0 mi ENE 8.1 mph - N/A   Clear
1:53 AM 26.6 °F 18.2 °F 24.8 °F 93% 30.00 in 7.0 mi ENE 8.1 mph - N/A   Clear
2:14 AM 26.6 °F 18.2 °F 24.8 °F 93% 30.00 in 7.0 mi ENE 8.1 mph - N/A   Clear
2:33 AM 26.6 °F 19.1 °F 24.8 °F 93% 30.02 in 7.0 mi ENE 6.9 mph - N/A   Clear
2:53 AM 26.6 °F 17.5 °F 24.8 °F 93% 30.00 in 7.0 mi East 9.2 mph - N/A   Clear
3:13 AM 26.6 °F 19.1 °F 23.0 °F 86% 30.03 in 7.0 mi NE 6.9 mph - N/A   Clear
3:53 AM 24.8 °F 15.3 °F 21.2 °F 86% 30.03 in 5.0 mi ENE 9.2 mph - N/A   Clear
4:14 AM 24.8 °F 16.9 °F 23.0 °F 93% 30.02 in 5.0 mi East 6.9 mph - N/A   Clear
4:33 AM 24.8 °F 19.1 °F 23.0 °F 93% 30.02 in 5.0 mi East 4.6 mph - N/A   Clear
4:53 AM 24.8 °F 16.9 °F 23.0 °F 93% 30.01 in 5.0 mi East 6.9 mph - N/A   Clear
5:13 AM 24.8 °F 20.5 °F 23.0 °F 93% 30.03 in 5.0 mi East 3.5 mph - N/A   Clear
5:53 AM 24.8 °F 17.9 °F 21.2 °F 86% 30.05 in 5.0 mi East 5.8 mph - N/A   Clear
6:14 AM 24.8 °F 20.5 °F 21.2 °F 86% 30.06 in 4.0 mi NNE 3.5 mph - N/A   Scattered Clouds
6:33 AM 24.8 °F 17.9 °F 23.0 °F 93% 30.06 in 4.0 mi NE 5.8 mph - N/A   Overcast
6:53 AM 23.0 °F - 21.2 °F 93% 30.07 in 4.0 mi Calm Calm - N/A   Overcast
7:14 AM 24.8 °F 19.1 °F 23.0 °F 93% 30.06 in 2.5 mi ENE 4.6 mph - N/A   Overcast
7:33 AM 24.8 °F 17.9 °F 23.0 °F 93% 30.06 in 1.2 mi ENE 5.8 mph - N/A   Overcast
7:53 AM 24.8 °F 14.6 °F 23.0 °F 93% 30.06 in 0.5 mi ENE 10.4 mph - N/A Fog Light Freezing Fog
8:14 AM 24.8 °F 15.3 °F 23.0 °F 93% 30.06 in 0.5 mi ENE 9.2 mph - N/A Fog Light Freezing Fog
8:33 AM 24.8 °F 16.1 °F 23.0 °F 93% 30.05 in 0.5 mi East 8.1 mph - N/A Fog Light Freezing Fog
8:53 AM 24.8 °F 15.3 °F 24.8 °F 100% 30.06 in 1.0 mi East 9.2 mph - N/A   Overcast
9:14 AM 24.8 °F - 24.8 °F 100% 30.08 in 1.2 mi Calm Calm - N/A   Overcast
9:33 AM 26.6 °F 22.6 °F 24.8 °F 93% 30.09 in 2.0 mi East 3.5 mph - N/A   Overcast
9:53 AM 26.6 °F 22.6 °F 26.6 °F 100% 30.10 in 2.5 mi East 3.5 mph - N/A   Overcast
10:14 AM 28.4 °F 24.6 °F 26.6 °F 93% 30.09 in 3.0 mi ENE 3.5 mph - N/A   Overcast
10:33 AM 28.4 °F 21.2 °F 28.4 °F 100% 30.07 in 4.0 mi East 6.9 mph - N/A   Mostly Cloudy
10:53 AM 30.2 °F 22.6 °F 28.4 °F 93% 30.07 in 4.0 mi East 8.1 mph - N/A   Scattered Clouds
11:14 AM 32.0 °F - 28.4 °F 87% 30.09 in 5.0 mi Calm Calm - N/A   Clear
11:33 AM 33.8 °F 29.6 °F 28.4 °F 81% 30.08 in 5.0 mi SE 4.6 mph - N/A   Clear
11:53 AM 33.8 °F 28.6 °F 28.4 °F 81% 30.06 in 7.0 mi SE 5.8 mph - N/A   Clear
12:13 PM 33.8 °F 29.6 °F 28.4 °F 81% 30.06 in 7.0 mi ESE 4.6 mph - N/A   Clear
12:33 PM 35.6 °F 29.9 °F 28.4 °F 75% 30.04 in 7.0 mi ESE 6.9 mph - N/A   Clear
12:54 PM 37.4 °F 32.1 °F 30.2 °F 75% 30.03 in 7.0 mi ESE 6.9 mph - N/A   Clear
1:13 PM 39.2 °F 33.6 °F 30.2 °F 70% 30.02 in 10.0 mi SE 8.1 mph - N/A   Clear
1:33 PM 39.2 °F 35.0 °F 30.2 °F 70% 30.02 in 7.0 mi SSE 5.8 mph - N/A   Clear
1:54 PM 41.0 °F 36.4 °F 30.2 °F 65% 30.01 in 7.0 mi SSE 6.9 mph - N/A   Clear
2:13 PM 41.0 °F 35.8 °F 30.2 °F 65% 30.01 in 10.0 mi SSE 8.1 mph - N/A   Clear
2:33 PM 41.0 °F 35.8 °F 30.2 °F 65% 30.01 in 10.0 mi SSE 8.1 mph - N/A   Clear
2:54 PM 42.8 °F 37.0 °F 30.2 °F 61% 30.00 in 10.0 mi SE 10.4 mph - N/A   Clear
3:13 PM 42.8 °F 37.5 °F 30.2 °F 61% 29.99 in 10.0 mi SE 9.2 mph - N/A   Clear
3:33 PM 41.0 °F 35.2 °F 30.2 °F 65% 29.98 in 10.0 mi SSE 9.2 mph - N/A   Clear
3:54 PM 41.0 °F 34.7 °F 30.2 °F 65% 29.98 in 7.0 mi SE 10.4 mph - N/A   Clear
4:13 PM 39.2 °F 33.0 °F 30.2 °F 70% 29.99 in 7.0 mi SSE 9.2 mph - N/A   Clear
4:33 PM 37.4 °F 30.8 °F 30.2 °F 75% 29.99 in 7.0 mi SSE 9.2 mph - N/A   Clear
4:54 PM 37.4 °F 30.8 °F 30.2 °F 75% 29.99 in 7.0 mi SE 9.2 mph - N/A   Clear
5:13 PM 35.6 °F 29.2 °F 28.4 °F 75% 30.00 in 7.0 mi SE 8.1 mph - N/A   Clear
5:33 PM 33.8 °F 27.0 °F 28.4 °F 81% 29.99 in 7.0 mi SE 8.1 mph - N/A   Clear
5:54 PM 33.8 °F 26.4 °F 28.4 °F 81% 29.99 in 7.0 mi SE 9.2 mph - N/A   Clear
6:13 PM 33.8 °F 27.0 °F 28.4 °F 81% 29.98 in 7.0 mi SE 8.1 mph - N/A   Clear
6:33 PM 32.0 °F 23.6 °F 28.4 °F 87% 29.97 in 7.0 mi SE 10.4 mph - N/A   Clear
6:54 PM 33.8 °F 25.8 °F 28.4 °F 81% 29.96 in 7.0 mi SE 10.4 mph - N/A   Clear
7:13 PM 33.8 °F 24.8 °F 28.4 °F 81% 29.95 in 7.0 mi SSE 12.7 mph - N/A   Clear
7:33 PM 33.8 °F 25.3 °F 30.2 °F 87% 29.95 in 7.0 mi SSE 11.5 mph - N/A   Clear
7:53 PM 35.6 °F 28.0 °F 30.2 °F 81% 29.94 in 7.0 mi SSE 10.4 mph - N/A   Clear
8:14 PM 33.8 °F 24.8 °F 30.2 °F 87% 29.93 in 7.0 mi SSE 12.7 mph 18.4 mph N/A   Clear
8:33 PM 35.6 °F 27.1 °F 30.2 °F 81% 29.92 in 7.0 mi SSE 12.7 mph 19.6 mph N/A   Clear
8:53 PM 35.6 °F 26.6 °F 30.2 °F 81% 29.92 in 7.0 mi SSE 13.8 mph 18.4 mph N/A   Clear
9:14 PM 35.6 °F 26.6 °F 32.0 °F 87% 29.93 in 5.0 mi South 13.8 mph 18.4 mph N/A   Clear
9:33 PM 35.6 °F 27.1 °F 32.0 °F 87% 29.93 in 5.0 mi South 12.7 mph 18.4 mph N/A   Clear
9:53 PM 35.6 °F 26.2 °F 32.0 °F 87% 29.93 in 5.0 mi South 15.0 mph - N/A   Clear
10:14 PM 35.6 °F 25.9 °F 32.0 °F 87% 29.93 in 5.0 mi South 16.1 mph - N/A   Clear
10:33 PM 35.6 °F 26.2 °F 32.0 °F 87% 29.92 in 5.0 mi South 15.0 mph - N/A   Clear
10:54 PM 35.6 °F 26.6 °F 32.0 °F 87% 29.93 in 5.0 mi South 13.8 mph - N/A   Clear
11:13 PM 33.8 °F 23.5 °F 30.2 °F 87% 29.92 in 5.0 mi South 16.1 mph - N/A   Clear
11:33 PM 33.8 °F 23.9 °F 30.2 °F 87% 29.91 in 5.0 mi South 15.0 mph - N/A   Clear
11:54 PM 33.8 °F 24.3 °F 30.2 °F 87% 29.90 in 4.0 mi South 13.8 mph - N/A   Clear